Regional Weather Roundup
Issued by NWS

Home | Current Version | Previous Version | Text Only | Print | Product List | Glossary Off
Versions: 1 2 3 4 5 6 7 8 9 10 11 12 13 14 15 16 17 18 19 20 21 22 23 24 25 26 27 28 29 30 31 32 33 34 35 36 37 38 39 40 41 42 43 44 45 46 47 48 49 50

249
ASUS43 KMKX 250011
RWRWI

WISCONSIN REGIONAL WEATHER ROUNDUP
NATIONAL WEATHER SERVICE MILWAUKEE/SULLIVAN WI
700 PM CDT SAT SEP 24 2016

NOTE: "FAIR" INDICATES FEW OR NO CLOUDS BELOW 12,000 FEET WITH NO
SIGNIFICANT WEATHER AND/OR OBSTRUCTIONS TO VISIBILITY.

WIZ001-002-006>008-014>016-023>028-250100-
NORTHWEST WISCONSIN

CITY           SKY/WX    TMP DP  RH WIND       PRES   REMARKS
SUPERIOR ARPT  CLOUDY    59  57  94 NE8       30.06F
6HR MIN TEMP:  59; 6HR MAX TEMP:  61;

ASHLAND        CLOUDY    66  62  87 NE6       30.11R
6HR MIN TEMP:  65; 6HR MAX TEMP:  68;

HAYWARD        CLOUDY    66  59  78 S3        30.10R
6HR MIN TEMP:  63; 6HR MAX TEMP:  69;

SIREN          CLOUDY    65  60  82 SE13      30.05F
6HR MIN TEMP:  65; 6HR MAX TEMP:  67;

CUMBERLAND     CLOUDY    63  59  88 SE8       30.08S
RICE LAKE      CLOUDY    65  60  82 SE12      30.10S
6HR MIN TEMP:  64; 6HR MAX TEMP:  67;

CHETEK         NOT AVBL
LADYSMITH      CLOUDY    66  58  73 SE6       30.14S
6HR MIN TEMP:  65; 6HR MAX TEMP:  70;

EAU CLAIRE     CLOUDY    66  61  84 SE7       30.09R
6HR MIN TEMP:  66; 6HR MAX TEMP:  67;

MENOMONIE      CLOUDY    66  61  84 E10       30.08S
6HR MIN TEMP:  66; 6HR MAX TEMP:  69;

NEW RICHMOND   CLOUDY    65  60  82 SE9       30.04S
6HR MIN TEMP:  65; 6HR MAX TEMP:  68;

OSCEOLA        CLOUDY    67  67 100 E10G18    30.05S
6HR MIN TEMP:  66; 6HR MAX TEMP:  69;

$$

WIZ003>005-009-010-017-018-250100-
NORTH CENTRAL WISCONSIN

CITY           SKY/WX    TMP DP  RH WIND       PRES   REMARKS
MANITOWISH WTR NOT AVBL
ARBOR VITAE    CLEAR     62  54  74 SE6       30.16R
6HR MIN TEMP:  62; 6HR MAX TEMP:  72;

WOODRUFF       CLEAR     62  54  74 SE6       30.16R
6HR MIN TEMP:  62; 6HR MAX TEMP:  72;

RHINELANDER    CLEAR     61  54  77 SE6       30.17R
6HR MIN TEMP:  61; 6HR MAX TEMP:  69;

EAGLE RIVER    PTCLDY    61  49  65 CALM      30.17R
6HR MIN TEMP:  61; 6HR MAX TEMP:  69;

LAND O LAKES   CLEAR     62  50  66 S3        30.18R
6HR MIN TEMP:  62; 6HR MAX TEMP:  69;

PHILLIPS       CLOUDY    64  56  75 SE7       30.14R
6HR MIN TEMP:  63; 6HR MAX TEMP:  69;

TOMAHAWK       CLEAR     59  54  83 CALM      30.16R
6HR MIN TEMP:  59; 6HR MAX TEMP:  68;

MEDFORD        CLOUDY    63  56  80 SE3       30.15R
6HR MIN TEMP:  62; 6HR MAX TEMP:  67;

MERRILL        PTCLDY    62  55  77 SE3       30.17R
6HR MIN TEMP:  62; 6HR MAX TEMP:  69;

$$

WIZ029-030-035-036-043>047-250100-
CENTRAL WISCONSIN

CITY           SKY/WX    TMP DP  RH WIND       PRES   REMARKS
WAUSAU         CLEAR     63  54  72 SE8       30.14R
6HR MIN TEMP:  63; 6HR MAX TEMP:  70;

MOSINEE        CLOUDY    61  57  88 SE5       30.16R
MARSHFIELD     CLOUDY    65  57  75 E7        30.13R
6HR MIN TEMP:  63; 6HR MAX TEMP:  69;

STEVENS POINT  MOCLDY    62  55  79 SE3       30.16R
6HR MIN TEMP:  62; 6HR MAX TEMP:  66;

WAUPACA        CLEAR     65  56  72 E3        30.15R
6HR MIN TEMP:  65; 6HR MAX TEMP:  72;

WAUTOMA        CLOUDY    65  59  81 VRB6      30.14S
6HR MIN TEMP:  65; 6HR MAX TEMP:  69;

WISC RAPIDS    LGT RAIN  66  59  78 SE6       30.14S
6HR MIN TEMP:  64; 6HR MAX TEMP:  69; 6HR PCP: TRACE;

CAMP DOUGLAS   PTCLDY    63  61  92 E6        30.11S
6HR MIN TEMP:  63; 6HR MAX TEMP:  67;

$$

WIZ011>013-019>022-031-037>040-048>050-250100-
NORTHEAST WISCONSIN

CITY           SKY/WX    TMP DP  RH WIND       PRES   REMARKS
ANTIGO         CLEAR     59  52  79 CALM      30.17S
6HR MIN TEMP:  59; 6HR MAX TEMP:  66;

SHAWANO        CLEAR     62  54  73 E6        30.17R
6HR MIN TEMP:  62; 6HR MAX TEMP:  73;

OCONTO         NOT AVBL
STURGEON BAY   CLEAR     60  52  74 E5        30.18F
6HR MIN TEMP:  60; 6HR MAX TEMP:  66;

GREEN BAY      CLEAR     62  55  77 E8        30.17R
6HR MIN TEMP:  62; 6HR MAX TEMP:  70;

MANITOWOC      CLEAR     61  54  77 MISG      30.18S
6HR MIN TEMP:  61; 6HR MAX TEMP:  66;

APPLETON       PTCLDY    63  52  67 E9        30.15R
CLINTONVILLE   NOT AVBL
OSHKOSH        CLEAR     63  57  81 SE8       30.15R
6HR MIN TEMP:  63; 6HR MAX TEMP:  69;

$$

WIZ032>034-041-042-053>061-250100-
SOUTHWEST WISCONSIN

CITY           SKY/WX    TMP DP  RH WIND       PRES   REMARKS
LA CROSSE      CLOUDY    70  63  78 SE9       30.07S
6HR MIN TEMP:  70; 6HR MAX TEMP:  72;

SPARTA         CLOUDY    65  61  87 E5        30.11R
6HR MIN TEMP:  65; 6HR MAX TEMP:  67;

VIROQUA        CLOUDY    65  63  91 E8        30.10S
6HR MIN TEMP:  65; 6HR MAX TEMP:  67;

BOSCOBEL       CLOUDY    70  65  84 NE3       30.08S
6HR MIN TEMP:  70; 6HR MAX TEMP:  72;

PRAIRIE DU CHI CLOUDY    70  65  82 CALM      30.06R
6HR MIN TEMP:  68; 6HR MAX TEMP:  72;

PLATTEVILLE    CLEAR     70  67  91 E9        30.08F
6HR MIN TEMP:  69; 6HR MAX TEMP:  74;

$$

WIZ056-057-062-063-064-067-068-250100-
SOUTH CENTRAL WISCONSIN

CITY           SKY/WX    TMP DP  RH WIND       PRES   REMARKS
REEDSBURG      NOT AVBL
BARABOO/DELLS  CLEAR     65  60  82 E6        30.12S
6HR MIN TEMP:  63; 6HR MAX TEMP:  70;

LONE ROCK      CLEAR     67  62  84 E7        30.09F
6HR MIN TEMP:  67; 6HR MAX TEMP:  70;

MINERAL POINT  CLEAR     70  64  83 E8        30.10S
MADISON        PTCLDY    67  61  81 SE8       30.12R
6HR MIN TEMP:  65; 6HR MAX TEMP:  71;

MIDDLETON      CLEAR     68  63  83 E6        30.12S
6HR MIN TEMP:  67; 6HR MAX TEMP:  72;

WATERTOWN      CLOUDY    64  63  94 E8        30.13S
6HR MIN TEMP:  64; 6HR MAX TEMP:  69;

MONROE         CLEAR     68  63  83 E6        30.10F
JANESVILLE     CLEAR     70  63  78 E7        30.12R
$$

WIZ051-052-058>065-066-070>072-250100-
SOUTHEAST WISCONSIN

CITY           SKY/WX    TMP DP  RH WIND       PRES   REMARKS
MILWAUKEE      MOCLDY    67  59  75 E9        30.14F
6HR MIN TEMP:  67; 6HR MAX TEMP:  69;

WAUKESHA       MOCLDY    63  57  82 E12       30.15F
MILWAUKEE/TIMM CLOUDY    64  55  72 E6        30.15F
RACINE         MOCLDY    67  60  78 E9        30.15F
6HR MIN TEMP:  67; 6HR MAX TEMP:  70;

BURLINGTON     CLOUDY    64  59  85 E8        30.14S
6HR MIN TEMP:  64; 6HR MAX TEMP:  68;

KENOSHA        CLEAR     66  61  84 E8        30.14F
6HR MIN TEMP:  66; 6HR MAX TEMP:  70;

FOND DU LAC    MOCLDY    63  57  81 SE10      30.15S
6HR MIN TEMP:  63; 6HR MAX TEMP:  69; 6HR PCP: TRACE;

SHEBOYGAN      CLOUDY    62  55  77 E3        30.17S
6HR MIN TEMP:  62; 6HR MAX TEMP:  67;

WEST BEND      CLOUDY    61  55  82 E5        30.16S
JUNEAU         PTCLDY    62  58  86 E9        30.15S
6HR MIN TEMP:  62; 6HR MAX TEMP:  67;

$$

LSZ147-162-250100-
LAKE SUPERIOR

STATION/POSITION TIME  TEMP    WIND        PRES    WAVE
                       AIR SEA DIR/SP/G            HT/PER
                 (UTC) (F)     (DEG/KT/KT) (MB)    (FT/S)
W MID LAKE BUOY  2350   64 62  100/ 14/ 16 1019.3R   2/ 4
DEVILS ISLAND    2300   62      70/ 13/ 14 1018.9F
SAXON HARBOR     2300   68      CALM  /  3 1018.6S
$$

LMZ867-665-643>646-250100-
LAKE MICHIGAN

STATION/POSITION TIME  TEMP    WIND        PRES    WAVE
                       AIR SEA DIR/SP/G            HT/PER
                 (UTC) (F)     (DEG/KT/KT) (MB)    (FT/S)
CHAMBERS ISLAND  2300   63     130/  4/  5 1022.0F
S GREEN BAY BUOY 2300   65 67  110/ 12/ 14 1021.3F
N MID LAKE BUOY  2350   63 67  110/ 12/ 14 1021.9F   1/ 3
NORTHPORT PIER   C1F1C2F2C3F3C4F4C5F5C6F6C7F7C8M1C9M2Ca!



USA.gov is the U.S. government's official web portal to all federal, state and local government web resources and services.